Location: Barruelo
(41.2448°N, 3.8231°W)
Time: 16:30:54
(UTC+00:00)

Cosmos 372 Rocket - Pass Details

Date: 11 December 2025
Orbit: 734 x 761 km, 74.1° (Epoch: 16 January)

Event Time Altitude Azimuth Distance (km) Brightness Sun altitude
Rises 18:32:38 0° 200° (SSW) 3,191 7.7 -19.3°
Reaches altitude 10° 18:34:59 10° 201° (SSW) 2,266 6.9 -19.7°
Maximum altitude 18:40:08 82° 290° (WNW) 759 3.9 -20.6°
Enters shadow 18:43:23 23° 16° (NNE) 1,554 5.3 -21.2°
